Location: Mentone
(34.5413°N, 85.5351°W)
Time: 09:32:48
(UTC-05:00)

A-11 Canister half - Visible Passes

Search period start: 24 July 2017 00:00
Search period end: 03 August 2017 00:00
Orbit: 1525 x 1685 km, 47.3° (Epoch: 23 July)

Date Brightness Start Highest point End Pass type
(mag) Time Alt. Az. Time Alt. Az. Time Alt. Az.
24 Jul 9.0 01:36:32 70° SSE 01:36:47 70° SE 01:46:41 10° ENE visible
24 Jul 9.7 03:34:48 18° W 03:42:23 52° NNW 03:51:56 10° NE visible
25 Jul 9.1 01:15:40 66° ESE 01:15:40 66° ESE 01:25:03 10° ENE visible
25 Jul 9.6 03:13:56 22° W 03:20:42 53° NNW 03:30:19 10° NE visible
26 Jul 9.2 00:54:46 60° ESE 00:54:46 60° ESE 01:03:25 10° ENE visible
26 Jul 9.6 02:53:01 26° W 02:59:01 55° NNW 03:08:42 10° NE visible
26 Jul 10.2 04:56:52 10° WNW 05:06:03 39° N 05:14:58 10° ENE visible
27 Jul 9.3 00:33:47 54° E 00:33:47 54° E 00:41:47 10° ENE visible
27 Jul 9.5 02:32:02 30° W 02:37:20 56° NNW 02:47:05 10° NE visible
27 Jul 10.2 04:35:07 10° WNW 04:44:20 39° N 04:53:16 10° ENE visible
28 Jul 9.4 00:12:44 49° E 00:12:44 49° E 00:20:08 10° ENE visible
28 Jul 9.5 02:10:58 34° W 02:15:40 58° NNW 02:25:28 10° NE visible
28 Jul 10.2 04:13:22 10° WNW 04:22:36 39° N 04:31:36 10° ENE visible
28 Jul 9.6 23:51:34 44° E 23:51:34 44° E 23:58:29 10° ENE visible
29 Jul 9.4 01:49:48 38° W 01:53:59 60° NNW 02:03:51 10° NE visible
29 Jul 10.2 03:51:37 10° WNW 04:00:53 39° N 04:09:55 10° ENE visible
29 Jul 9.6 23:30:16 41° E 23:30:16 41° E 23:36:49 10° ENE visible
30 Jul 9.4 01:28:29 41° W 01:32:19 62° NNW 01:42:14 10° NE visible
30 Jul 10.2 03:29:53 10° WNW 03:39:10 39° N 03:48:13 10° ENE visible
30 Jul 9.7 23:08:45 39° E 23:08:45 39° E 23:15:09 10° ENE visible
31 Jul 9.3 01:06:57 43° W 01:10:39 64° NNW 01:20:37 10° NE visible
31 Jul 10.2 03:08:07 10° WNW 03:17:27 40° N 03:26:33 10° ENE visible
31 Jul 10.0 05:14:56 10° NW 05:24:35 50° NNE 05:33:53 10° E visible
31 Jul 9.6 22:46:52 39° E 22:46:52 39° E 22:53:28 10° ENE visible
01 Aug 9.3 00:45:01 41° W 00:48:58 67° NNW 00:59:00 10° NE visible
01 Aug 10.1 02:46:22 10° WNW 02:55:43 40° N 03:04:52 10° ENE visible
01 Aug 10.0 04:53:16 10° NW 05:02:54 49° NNE 05:12:12 10° E visible
01 Aug 9.4 22:13:02 10° SSW 22:24:06 41° ESE 22:31:47 10° ENE visible
02 Aug 9.2 00:22:06 33° WSW 00:27:18 69° NNW 00:37:23 10° NE visible
02 Aug 10.1 02:24:36 10° WNW 02:34:00 40° N 02:43:12 10° ENE visible
02 Aug 10.0 04:31:36 10° NW 04:41:13 48° NNE 04:50:31 10° E visible
02 Aug 9.3 21:51:36 10° SSW 22:00:50 42° SE 22:10:05 10° ENE visible
